Regional Weather Roundup
Issued by NWS

Home | Current Version | Previous Version | Text Only | Print | Product List | Glossary Off
Versions: 1 2 3 4 5 6 7 8 9 10 11 12 13 14 15 16 17 18 19 20 21 22 23 24 25 26 27 28 29 30 31 32 33 34 35 36 37 38 39 40 41 42 43 44 45 46 47 48 49 50

000
ASUS45 KBOI 220210
RWRID
WEATHER ROUNDUP FOR IDAHO
NATIONAL WEATHER SERVICE BOISE ID
800 PM MDT SUN SEP 21 2014

NOTE: "FAIR" INDICATES FEW OR NO CLOUDS BELOW 12000 FEET
WITH NO SIGNIFICANT WEATHER AND/OR OBSTRUCTIONS TO VISIBILITY

IDZ012-014-220300-
SOUTHWEST IDAHO


CITY           SKY/WX    TMP DP  RH WIND       PRES   REMARKS
BOISE          CLOUDY    69  56  62 SE13      30.01R
CALDWELL       CLOUDY    72  48  43 SE12      30.00F
MOUNTAIN HOME  CLOUDY    64  64 100 E13       30.04S
$$

IDZ016-017-220300-
SOUTHCENTRAL IDAHO


CITY           SKY/WX    TMP DP  RH WIND       PRES   REMARKS
BURLEY         CLOUDY    60  58  92 CALM      30.11R
JEROME         LGT RAIN  60  56  86 NE8       30.10S
TWIN FALLS     CLOUDY    61  57  87 NE3       30.10R
$$

IDZ019>023-220300-
SOUTHEAST IDAHO


CITY           SKY/WX    TMP DP  RH WIND       PRES   REMARKS
IDAHO FALLS    LGT RAIN  65  52  62 SW13      30.15R
POCATELLO      LGT RAIN  58  58 100 S6        30.15S
REXBURG        CLOUDY    67  46  47 SW8       30.14R
$$

IDZ006-010-011-018-031-032-220300-
CENTRAL IDAHO MOUNTAINS


CITY           SKY/WX    TMP DP  RH WIND       PRES   REMARKS
MCCALL         CLOUDY    69  43  38 N7        30.07F
HAILEY         CLOUDY    61  52  72 S12       30.18R
STANLEY          N/A     62  40  44 CALM      30.16F
SALMON         MOCLDY    72  46  40 CALM      29.97S
CHALLIS        CLOUDY    72  39  30 SE12      30.05S
$$

IDZ002-004-006-007-026-220300-
NORTHERN IDAHO


CITY           SKY/WX    TMP DP  RH WIND       PRES   REMARKS
LEWISTON       MOCLDY    85  42  22 W5        29.84S
LOWELL           N/A     67  59  75 CALM      29.86R
COEUR D`ALENE  PTCLDY    73  45  35 N6        29.89S
MULLAN PASS    PTCLDY    67  38  34 NW5       30.14S
$$


USA.gov is the U.S. government's official web portal to all federal, state and local government web resources and services.